MPEC 2001-H03: 2001 GN2

The following Minor Planet Electronic Circular may be linked-to from your own Web pages, but must not otherwise be redistributed electronically.


Read MPEC 2001-H02 Read MPEC 2001-H04


M.P.E.C. 2001-H03                                Issued 2001 Apr. 16, 19:11 UT

     The Minor Planet Electronic Circulars contain information on unusual
         minor planets and routine data on comets.  They are published
   on behalf of Commission 20 of the International Astronomical Union by the
          Minor Planet Center, Smithsonian Astrophysical Observatory,
                          Cambridge, MA 02138, U.S.A.

             Prepared using the Tamkin Foundation Computer Network

                              MPC@CFA.HARVARD.EDU
          URL http://cfa-www.harvard.edu/iau/mpc.html  ISSN 1523-6714

                                   2001 GN2

Observations:
     K01G02N* C2001 04 12.34965 16 05 28.41 +70 03 13.7          17.1        704
     K01G02N  C2001 04 12.36484 16 05 31.67 +70 02 48.2          17.2        704
     K01G02N  C2001 04 12.37993 16 05 34.96 +70 02 23.9          17.2        704
     K01G02N  C2001 04 12.39392 16 05 37.86 +70 02 00.7          17.7        704
     K01G02N  C2001 04 12.40793 16 05 40.78 +70 01 37.5          17.3        704
     K01G02N  C2001 04 13.10674 16 08 32.57 +69 41 40.5          17.2 V      726
     K01G02N  C2001 04 13.11021 16 08 33.27 +69 41 35.3          17.7 V      726
     K01G02N  C2001 04 13.11368 16 08 34.21 +69 41 29.3          18.0 V      726
     K01G02N  C2001 04 13.11715 16 08 35.28 +69 41 27.0          18.1 V      726
     K01G02N  C2001 04 13.12062 16 08 35.84 +69 41 20.7          17.5 V      726
     K01G02N  C2001 04 13.12409 16 08 36.88 +69 41 16.4          17.7 V      726
     K01G02N  C2001 04 13.38914 16 09 31.98 +69 34 34.3          17.7        704
     K01G02N  C2001 04 13.38923 16 09 32.02 +69 34 33.7          17.2        704
     K01G02N  C2001 04 13.39821 16 09 33.61 +69 34 19.2          17.4        704
     K01G02N  C2001 04 13.39829 16 09 33.55 +69 34 19.5          17.6        704
     K01G02N  C2001 04 13.40242 16 09 34.38 +69 34 12.3          17.7        704
     K01G02N  C2001 04 13.40250 16 09 34.45 +69 34 12.2          17.7        704
     K01G02N  C2001 04 13.40941 16 09 35.11 +69 33 55.7          17.0 R      918
     K01G02N  C2001 04 13.41212 16 09 35.65 +69 33 51.2          17.1 R      918
     K01G02N  C2001 04 13.41268 16 09 36.24 +69 33 55.9          18.0        704
     K01G02N  C2001 04 13.41276 16 09 36.26 +69 33 55.9          17.9        704
     K01G02N  C2001 04 13.41575 16 09 36.89 +69 33 50.8          17.8        704
     K01G02N  C2001 04 13.41584 16 09 36.98 +69 33 50.6          17.4        704
     K01G02N  C2001 04 13.41625 16 09 36.42 +69 33 44.5          17.2 R      918
     K01G02N  C2001 04 13.41998 16 09 37.12 +69 33 38.4          16.9 R      918
     K01G02N  C2001 04 13.42645 16 09 38.78 +69 33 33.5          17.8        704
     K01G02N  C2001 04 13.42654 16 09 38.82 +69 33 33.8          17.6        704
     K01G02N  C2001 04 13.42683 16 09 38.47 +69 33 26.9          17.1 R      918
     K01G02N  C2001 04 13.42906 16 09 39.22 +69 33 28.8          17.6        704
     K01G02N  C2001 04 13.42914 16 09 39.39 +69 33 29.5          17.6        704
     K01G02N  C2001 04 13.44045 16 09 41.44 +69 33 10.3          17.9        704
     K01G02N  C2001 04 13.44054 16 09 41.40 +69 33 10.5          17.7        704
     K01G02N  C2001 04 13.44234 16 09 41.65 +69 33 07.1          17.7        704
     K01G02N  C2001 04 13.44243 16 09 41.79 +69 33 07.5          17.5        704
     K01G02N  C2001 04 13.45414 16 09 43.92 +69 32 47.9          17.8        704
     K01G02N  C2001 04 13.45423 16 09 43.91 +69 32 47.7          17.8        704
     K01G02N  C2001 04 13.87216 16 11 17.74 +69 21 06.6          18.0 V      636
     K01G02N  C2001 04 13.87951 16 11 19.87 +69 21 01.0          17.9 V      636
     K01G02N  C2001 04 13.88750 16 11 21.41 +69 20 47.1          17.9 V      636
     K01G02N  C2001 04 13.98015 16 11 40.06 +69 18 35.3          17.2 R      946
     K01G02N  C2001 04 13.99348 16 11 42.37 +69 18 15.1                      946
     K01G02N  C2001 04 14.00398 16 11 44.23 +69 18 00.2                      946
     K01G02N  C2001 04 14.00837 16 11 45.08 +69 17 53.3          17.1 R      946
     K01G02N  C2001 04 14.10289 16 12 01.43 +69 15 21.8          17.9 V      636
     K01G02N  C2001 04 14.10735 16 12 01.92 +69 15 14.6          18.0 V      636
     K01G02N  C2001 04 14.11811 16 12 03.59 +69 15 00.5          17.8 V      636
     K01G02N  C2001 04 14.38959 16 12 58.37 +69 08 03.0          17.4        704
     K01G02N  C2001 04 14.40285 16 13 00.47 +69 07 42.1          17.5        704
     K01G02N  C2001 04 14.40560 16 13 00.76 +69 07 38.5          17.3        704
     K01G02N  C2001 04 14.41633 16 13 02.58 +69 07 21.4          17.2        704
     K01G02N  C2001 04 14.41902 16 13 02.94 +69 07 17.8          17.4        704
     K01G02N  C2001 04 14.42968 16 13 04.74 +69 07 00.5          17.1        704
     K01G02N  C2001 04 14.43245 16 13 05.17 +69 06 56.3          17.8        704
     K01G02N  C2001 04 14.44604 16 13 07.37 +69 06 35.2          18.6        704
     K01G02N  C2001 04 14.45964 16 13 09.52 +69 06 12.7          18.1        704
     K01G02N  C2001 04 14.82030 16 14 23.31 +68 56 25.6          17.5 V      151
     K01G02N  C2001 04 14.82343 16 14 23.58 +68 56 21.2          17.4 V      151
     K01G02N  C2001 04 14.82579 16 14 24.17 +68 56 16.7          17.3 V      151
     K01G02N  C2001 04 14.82708 16 14 24.26 +68 56 15.1          17.4 V      151
     K01G02N  C2001 04 14.82819 16 14 24.42 +68 56 14.3          17.4 V      151
     K01G02N  C2001 04 14.85434 16 14 29.16 +68 55 39.3          16.8 R      046
     K01G02N  C2001 04 14.85579 16 14 29.36 +68 55 37.8                      046
     K01G02N  C2001 04 14.85696 16 14 29.55 +68 55 35.7                      046
     K01G02N  C2001 04 14.85828 16 14 29.86 +68 55 33.9                      046
     K01G02N  C2001 04 14.86081 16 14 30.19 +68 55 29.8          16.9 R      046
     K01G02N  C2001 04 15.06531 16 15 03.18 +68 50 35.2          17.8        106
     K01G02N  C2001 04 15.08649 16 15 06.38 +68 50 03.1          17.6        106
     K01G02N  C2001 04 15.10822 16 15 09.59 +68 49 29.9          17.3        106
     K01G02N  C2001 04 15.11428 16 15 10.30 +68 49 19.7                      118
     K01G02N  C2001 04 15.11528 16 15 10.38 +68 49 17.9                      118
     K01G02N  C2001 04 15.11637 16 15 10.58 +68 49 16.3          16.8 R      118
     K01G02N  C2001 04 15.40172 16 16 01.60 +68 42 14.9          17.4        704
     K01G02N  C2001 04 15.40407 16 16 01.88 +68 42 10.7          17.2        704
     K01G02N  C2001 04 15.41510 16 16 03.46 +68 41 54.3          17.6        704
     K01G02N  C2001 04 15.41984 16 16 03.99 +68 41 47.0          17.4        704
     K01G02N  C2001 04 15.42858 16 16 05.27 +68 41 33.7          17.3        704
     K01G02N  C2001 04 15.43546 16 16 06.23 +68 41 23.2          17.5        704
     K01G02N  C2001 04 15.44219 16 16 07.15 +68 41 12.8          17.8        704
     K01G02N  C2001 04 15.45013 16 16 08.12 +68 41 00.1          17.9        704
     K01G02N  C2001 04 15.45568 16 16 09.02 +68 40 52.0          17.9        704
     K01G02N  C2001 04 15.46342 16 16 10.19 +68 40 40.3          18.3        704

Observer details:
046 Klet.  Observers J. Ticha, M. Tichy.  0.57-m f/5.2 reflector + CCD.
106 Crni Vrh.  Observer J. Skvarc.  0.36-m f/6.7 Schmidt-Cassegrain + CCD.
118 Modra.  Observers A. Galad, D. Kalmancok.  0.6-m f/5.5 reflector + CCD.
151 Eschenberg Observatory, Winterthur.  Observer M. Griesser.  0.40-m f/5.8
    Hypergraph.
636 Essen.  Observers A. Knoefel, T. Payer.  0.318-m f/5.7 reflector + CCD
704 Lincoln Laboratory ETS, New Mexico.  Observers M. Blythe, F. Shelly,
    M. Bezpalko, R. Huber, L. Manguso, S. Adams.  Measurers J. Stuart,
    R. Sayer, J. B. Evans, H. Viggh.  1.0-m f/2.15 reflector + CCD.
726 Brainerd.  Observer J. Wentworth.  0.28-m Schmidt-Cassegrain + CCD.
918 Badlands Observatory, Quinn.  Observer R. Dyvig.  0.66-m f/4.8 reflector
    + CCD.
946 Ametlla de Mar.  Observer J. Nomen.  0.40-m f/2.0 Schmidt + CCD.

Orbital elements:
2001 GN2                                                             PHA 0.021A
Epoch 2001 Apr. 1.0 TT = JDT 2452000.5                  Spahr
M   4.53523              (2000.0)            P               Q
n   0.38225924     Peri.    3.21448     -0.99786614     -0.04331655
a   1.8803155      Node   173.65123     +0.04557102     -0.99790067
e   0.4571952      Incl.   26.21938     +0.04675956     +0.04814493
P   2.58           H   18.0           G   0.15
From 81 observations 2001 Apr. 12-15.

Ephemeris:
2001 GN2                 a,e,i = 1.88, 0.46, 26                  q = 1.0206
Date    TT    R. A. (2000) Decl.     Delta      r     Elong.  Phase     V
2001 04 11    15 59.2    +70 42.0    0.222    1.051    96.6    71.3    17.3
2001 04 21    16 27.40   +66 33.9    0.302    1.083    96.8    67.1    17.9
2001 05 01    16 34.73   +63 19.0    0.377    1.125    98.2    62.5    18.4
2001 05 11    16 34.73   +60 11.8    0.446    1.174   100.2    57.9    18.7
2001 05 21    16 31.84   +56 48.8    0.511    1.229   102.6    53.5    18.9
2001 05 31    16 28.60   +52 56.2    0.572    1.288   105.2    49.4    19.2
2001 06 10    16 26.62   +48 31.1    0.633    1.350   107.7    45.7    19.4
2001 06 20    16 26.62   +43 36.8    0.695    1.414   110.0    42.5    19.6
2001 06 30    16 29.01   +38 20.6    0.761    1.478   111.6    39.7    19.8
2001 07 10    16 33.80   +32 54.2    0.835    1.542   112.5    37.5    20.1
2001 07 20    16 40.76   +27 28.9    0.917    1.606   112.3    35.8    20.3
2001 07 30    16 49.71   +22 14.9    1.010    1.669   111.1    34.6    20.6
2001 08 09    17 00.37   +17 20.8    1.114    1.731   108.9    33.6    20.8
2001 08 19    17 12.46   +12 52.0    1.229    1.792   105.8    32.9    21.1
2001 08 29    17 25.80   +08 51.3    1.354    1.851   102.1    32.2    21.4
2001 09 08    17 40.17   +05 20.0    1.489    1.908    97.9    31.5    21.6
2001 09 18    17 55.38   +02 17.5    1.632    1.964    93.2    30.7    21.8
2001 09 28    18 11.31   -00 17.3    1.781    2.018    88.3    29.8    22.1

Timothy B. Spahr             (C) Copyright 2001 MPC           M.P.E.C. 2001-H03

Read MPEC 2001-H02 Read MPEC 2001-H04


Our Web policy. Index to the CBAT/MPC/ICQ pages.

MPC